NWS Melbourne » East Central Florida Hourly Weather Roundup

 

ASUS42 KMLB 221516
RWRMLB
HOURLY WEATHER ROUNDUP AROUND FLORIDA
NATIONAL WEATHER SERVICE OFFICE MELBOURNE FL
1100 AM EDT FRI MAY 22 2015
  
CITY           SKY/WX    TMP DP  RH WIND       PRES   REMARKS
MELBOURNE      SUNNY     85  73  67 N7        30.08R                  
FORT PIERCE    PTSUNNY   87  74  64 E8        30.08R                  
ORLANDO INTL   MOSUNNY   85  69  58 N3        30.10R                  
DAYTONA BEACH  MOSUNNY   82  67  60 NE10      30.11R                  
VERO BEACH     MOSUNNY   89  71  55 N8        30.08S                  
$$
...ELSEWHERE ACROSS CENTRAL FLORIDA...
  
CITY           SKY/WX    TMP DP  RH WIND       PRES   REMARKS
PATRICK AFB    SUNNY     84  73  70 NE10      30.08S                  
KSC            SUNNY     82  70  65 N9        30.09R                  
CAPE CANAVERAL SUNNY     84  72  65 N10       30.08R                  
TITUSVILLE     SUNNY     82  73  74 N13       30.10R                  
ORLANDO EXEC   MOSUNNY   85  67  54 VRB3      30.10R                  
LEESBURG       SUNNY     84  67  56 VRB3      30.12R                  
THE VILLAGES     N/A     81  70  69 CALM      30.02R                  
SANFORD        CLOUDY    83  67  58 VRB3      30.10S                  
DELAND           N/A     82  64  54 NW6       30.12R                  
NEW SMYRNA BCH MOSUNNY   82  68  61 N8G18     30.11R                  
ORMOND BEACH   SUNNY     79  66  65 NE6       30.11R                  
WINTER HAVEN   SUNNY     88  70  55 N9        30.12R                  
KISSIMMEE      SUNNY     84  70  61 CALM      30.11R                  
OKEECHOBEE     MOSUNNY   82  72  69 NE5       30.09S                  
TAMPA          MOSUNNY   86  67  52 VRB3      30.11R                  
$$
...NORTHERN FLORIDA...
  
CITY           SKY/WX    TMP DP  RH WIND       PRES   REMARKS
PALM COAST     SUNNY     81  66  61 NE6       30.11R                  
ST AUGUSTINE   SUNNY     78  67  68 N13       30.13R                  
OCALA          SUNNY     81  64  57 NE7       30.12R                  
GAINESVILLE    SUNNY     79  63  57 VRB5      30.12R                  
JACKSONVILLE   MOSUNNY   77  61  57 N6        30.13R                  
TALLAHASSEE    PTSUNNY   75  57  53 N9        30.16R                  
$$
...ALONG THE SOUTHEAST COAST TO THE KEYS...
  
CITY           SKY/WX    TMP DP  RH WIND       PRES   REMARKS
STUART         MOSUNNY   84  73  70 NE12      30.09                   
WEST PALM BCH  MOSUNNY   86  73  65 E12       30.09R                  
MIAMI          MOSUNNY   88  70  55 VRB6      30.08R                  
KEY WEST       MOSUNNY   85  73  67 VRB5      30.10R                  
$$
...MARINE REPORTS...
  
STATION/POSITION TIME  TEMP    WIND        PRES    WAVE   SWELL
                       AIR SEA DIR/SP/G            HT/PER HT/PER/DIR
                 (UTC) (F)     (DEG/KT/KT) (MB)    (FT/S) (FT/S/D)
ST AUGUSTINE FP  1500   72 73  350/ 15/ 15 1020.9R
20NM E CAPE CANA 1450   79 80  340/ 10/ 12 1018.9R   1/ 8   2/ 70/ 8
120 E NEW SMYRNA 1450   81 80  300/  4/  6 1018.5R   3/ 5   2/220/ 5
TRIDENT PIER     1448   83 82  330/  6/ 10 1019.3R
SEBASTIAN INLET  1500   78     360/ 11     1019.0
4NM E PORT CANAV 1439      81                N/A     1/ 8
6NM NE FPR INLET 1451      80                N/A     2/ 3
SETTLEMENT PT GB 1500   81     200/ 10/ 11 1019.7R
$$
 

 

Link to: East Central Florida Hourly Weather Roundup


USA.gov is the U.S. government's official web portal to all federal, state and local government web resources and services.